Regional Weather Roundup
Issued by NWS

Home | Current Version | Previous Version | Graphics & Text | Print | Product List | Glossary On
Versions: 1 2 3 4 5 6 7 8 9 10 11 12 13 14 15 16 17 18 19 20 21 22 23 24 25 26 27 28 29 30 31 32 33 34 35 36 37 38 39 40 41 42 43 44 45 46 47 48 49 50
000
ASUS45 KSLC 290610
RWRUT

UTAH REGIONAL WEATHER ROUNDUP
NATIONAL WEATHER SERVICE SALT LAKE CITY UT
1200 AM MDT MON MAY 29 2017

UTZ001>011-023>025-290700-

NORTHERN UTAH

CITY           SKY/WX    TMP DP  RH WIND       PRES   REMARKS
BRIGHAM CITY   CLEAR     58  41  52 NW3       30.16S
HILL AFB       CLEAR     62  36  37 E10       30.17F
LOGAN          CLEAR     52  44  74 N6        30.19R
OGDEN          CLEAR     58  36  43 S6        30.15F
SALT LAKE CITY CLEAR     63  41  44 SE3       30.14F
TOOELE VALLEY  CLEAR     50  37  62 S7        30.16S
WENDOVER       CLEAR     60  35  39 NW7       30.16F
HEBER CITY     CLEAR     45  36  70 E5        30.21F
WEST JORDAN    CLEAR     58  42  56 W3        30.17F

$$

UTZ011>015-024>027-290700-

CENTRAL/NORTHEAST UTAH

CITY           SKY/WX    TMP DP  RH WIND       PRES   REMARKS
PROVO AIRPORT  CLEAR     57  39  51 SE8       30.17R
MOAB/CANYONLAN CLEAR     60  14  16 W3        30.10S
DELTA          CLEAR     59  34  38 NE3       30.16S
PRICE          CLEAR     57  30  35 N8        30.20S
ROOSEVELT      CLOUDY    54  37  54 W5        30.21F
VERNAL         PTCLDY    57  35  43 NW7       30.19S

$$

UTZ013>016-019>022-027-290700-

SOUTHERN UTAH

CITY           SKY/WX    TMP DP  RH WIND       PRES   REMARKS
BRYCE CANYON   CLEAR     42  28  57 W6        30.31R
CEDAR CITY     CLEAR     57  22  25 CALM      30.17F
MILFORD        CLEAR     51  17  26 NW6       30.16R
ST GEORGE      CLEAR     81  19  10 NE17      29.97S
HANKSVILLE     CLEAR     59  12  15 CALM      30.13S
BLANDING       CLEAR     54  23  29 N9        30.26S

$$

REGIONAL REPORTS     COLORADO/ARIZONA

CITY           SKY/WX    TMP DP  RH WIND       PRES   REMARKS
CRAIG, CO      CLEAR     41  34  76 CALM      30.26F
GRAND JUNCTION CLEAR     63  26  24 CALM      30.14R
RIFLE, CO      CLEAR     53  28  38 SE7       30.21S
MONTROSE, CO   CLEAR     53  25  33 SE10      30.22S
CORTEZ, CO     CLEAR     44  29  55 NE7       30.21R
COLORADO CITY    N/A     57  28  33 CALM      30.13S
PAGE, AZ       CLEAR     70  19  14 SE5       30.07S
GRAND CANYON   CLEAR     53  23  31 E7        30.22F
KINGMAN, AZ    CLEAR     64  17  16 MISG      30.00S
FLAGSTAFF, AZ  CLEAR     49  20  31 SW3       30.24R

$$

REGIONAL REPORTS    NEVADA/IDAHO/WYOMING

CITY           SKY/WX    TMP DP  RH WIND       PRES   REMARKS
LAS VEGAS, NV  CLEAR     83  15   8 W5        29.90S
ELY, NY        CLEAR     45  22  40 S5        30.24S
ELKO, NV       CLEAR     57  33  40 NE7       30.17S
POCATELLO, ID  CLEAR     48  40  73 CALM      30.18F
BURLEY, ID     CLEAR     55  43  63 CALM      30.15S
FORT BRIDGER,    N/A     49  28  42 W8        30.33S
EVANSTON, WY   CLEAR     50  29  44 E3        30.31S
ROCK SPRINGS,  CLEAR     48  36  63 NE16      30.31S
KEMMERER, WY     N/A     46  34  61 NW9       30.31F

$$



USA.gov is the U.S. government's official web portal to all federal, state and local government web resources and services.